Regional Weather Roundup
Issued by NWS

Home | Current Version | Previous Version | Text Only | Print | Product List | Glossary Off
Versions: 1 2 3 4 5 6 7 8 9 10 11 12 13 14 15 16 17 18 19 20 21 22 23 24 25 26 27 28 29 30 31 32 33 34 35 36 37 38 39 40 41 42 43 44 45 46 47 48 49 50

000
ASUS43 KDTX 150101
RWRMI
MICHIGAN HOURLY REGIONAL WEATHER ROUNDUP
NATIONAL WEATHER SERVICE DETROIT/PONTIAC MI
900 PM EDT SUN SEP 14 2014

NOTE: "FAIR" INDICATES FEW OR NO CLOUDS BELOW 12,000 FEET WITH NO
SIGNIFICANT WEATHER AND/OR OBSTRUCTION TO VISIBILITY.

MIZ047>049-052>055-059>063-066>070-074>076-081>083-150200-
SOUTHEAST LOWER MICHIGAN

CITY           SKY/WX    TMP DP  RH WIND       PRES   REMARKS
ADRIAN         CLEAR     53  46  77 CALM      30.22S
ALMA           CLEAR     47  45  92 CALM      30.20R
ANN ARBOR      CLEAR     48  45  89 CALM      30.21S
BAD AXE        MOCLDY    51  47  84 S6        30.20S
CARO           CLOUDY    52  50  93 CALM      30.19S
DETROIT CITY   PTCLDY    57  44  62 S5        30.22S
DETROIT        PTCLDY    57  44  62 SE6       30.22S
FLINT          CLEAR     54  45  71 S5        30.20S
GROSSE ILE     PTCLDY    54  46  76 CALM      30.21S
HILLSDALE      CLEAR     48  46  93 CALM      30.22R
HOWELL         CLEAR     52  44  75 CALM      30.20S

CITY           SKY/WX    TMP DP  RH WIND       PRES   REMARKS
JACKSON        CLEAR     50  46  86 CALM      30.21S
LAMBERTVILLE   CLEAR     52  46  82 CALM      30.23R
LANSING        CLEAR     51  46  83 CALM      30.21R
LAPEER         CLOUDY    53  45  76 CALM      30.21S
MASON          CLEAR     48  44  87 CALM      30.21S
MONROE         CLEAR     48  46  93 CALM      30.21R
PONTIAC        PTCLDY    51  44  77 CALM      30.20S
PORT HOPE        N/A     55  44  66 VRB3      30.18S
PORT HURON     CLOUDY    50  48  93 CALM      30.22S
TRI CITIES     CLEAR     54  44  69 SW3       30.21R
TROY           PTCLDY    56  42  58 CALM      30.23S
SAGINAW HB     CLEAR     52  45  76 SW3       30.19S
$$
MIZ043>046-050>051-056>058-064>065-071>073-077>080-150200-
SOUTHWEST LOWER MICHIGAN

CITY           SKY/WX    TMP DP  RH WIND       PRES   REMARKS
BATTLE CREEK   CLEAR     52  45  77 S3        30.21S
BENTON HARBOR  CLEAR     51  48  89 E3        30.20R
BIG RAPIDS     CLEAR     47  46  95 CALM      30.18R
COLDWATER      CLEAR     51  48  89 CALM      30.21S
FREMONT        FAIR      50  44  80 S3        30.18S
HOLLAND        CLEAR     52  48  86 SE3       30.20S
GRAND RAPIDS   CLEAR     54  43  66 CALM      30.20S
IONIA          FAIR      53  46  77 W8        30.20R
KALAMAZOO      CLEAR     53  44  71 CALM      30.21S
LUDINGTON      CLEAR     55  48  77 S6        30.15S
MARSHALL       CLEAR     50  45  84 CALM      30.21R
MOUNT PLEASANT CLEAR     49  45  87 CALM      30.19R
MUSKEGON       CLEAR     54  45  71 S3        30.19S
SOUTH HAVEN    CLEAR     51  49  90 CALM      30.20R
$$
MIZ016>042-150200-
NORTHERN LOWER MICHIGAN

CITY           SKY/WX    TMP DP  RH WIND       PRES   REMARKS
ALPENA         CLOUDY    50  45  83 S7        30.14S
BEAVER ISLAND  CLOUDY    58  50  73 SW16G25   30.07S
BELLAIRE       MOCLDY    53  44  71 S5        30.12S
CADILLAC       CLEAR     49  44  82 S8        30.15S
CHARLEVOIX     CLOUDY    56  45  65 S8        30.12S
FRANKFORT      CLEAR     56  46  70 S8        30.12S
GAYLORD        PTCLDY    49  44  83 S7        30.12F
GRAYLING       PTCLDY    53  46  78 S6        30.15S
HARBOR SPRINGS PTCLDY    55  44  67 CALM      30.11R
HOUGHTON LAKE  CLEAR     53  44  71 SW8       30.16S
MANISTEE       CLEAR     54  45  71 S3        30.15R
OSCODA         PTCLDY    48  45  88 S3        30.16F
PELLSTON       MOCLDY    52  45  77 S3        30.10S
ROGERS CITY    MOCLDY    51  47  87 S7        30.13S
TRAVERSE CITY  PTCLDY    54  43  66 VRB6      30.11S
$$
MIZ007>008-015-150200-
EASTERN UPPER MICHIGAN

CITY           SKY/WX    TMP DP  RH WIND       PRES   REMARKS
KINROSS        MOCLDY    54  46  76 S5        30.07S
MACKINAC ISLAN CLOUDY    56  44  64 S8        30.08F
NEWBERRY       MOCLDY    52  46  82 SW14G21   30.04S
S. S. MARIE    MOCLDY    52  43  71 S5        30.06F
$$
MIZ004>006-011>014-085-150200-
CENTRAL UPPER MICHIGAN

CITY           SKY/WX    TMP DP  RH WIND       PRES   REMARKS
MANISTIQUE     CLOUDY    54  52  92 SW9       30.05S
ESCANABA       PTCLDY    55  48  76 SW6       30.04R
MENOMINEE      CLEAR     57  46  67 SW5       30.05S
$$
MIZ001>003-009>011-084-150200-
WESTERN UPPER MICHIGAN

CITY           SKY/WX    TMP DP  RH WIND       PRES   REMARKS
IRON MOUNTAIN  PTCLDY    54  45  71 SW5       30.04R
HOUGHTON       CLOUDY    51  41  68 W12       30.01R
COPPER HARBOR    N/A     55  40  56 NW13G21   29.99R
IRONWOOD       PTCLDY    48  45  87 SW3       30.05R
$$

ABBREVIATIONS USED IN REMARKS
   TC - TEMPERATURE IN CELSIUS
  WCI - WIND CHILL INDEX
   HX - HEAT INDEX
  VSB - VISIBILITY



USA.gov is the U.S. government's official web portal to all federal, state and local government web resources and services.